FW7079 Weather Reports


Display with metric or nautical units.
time (UTC)temp
F
wind
direction
speed
MPH
gust
MPH
rain 1hr
in
rain 24hr
in
rain mn
in
humidity
%
barometer
mb
20260510090052 59 0 0.0 0.0 0.00 0.16 0.00 94 1012.3
20260510084551 59 0 0.0 0.0 0.00 0.16 0.00 94 1012.6
20260510083051 59 132 0.0 0.0 0.00 0.16 0.00 94 1012.5
20260510081551 59 0 0.0 1.0 0.00 0.16 0.00 94 1012.7
20260510074553 58 0 0.0 1.0 0.00 0.16 0.00 94 1012.3
20260510073114 58 142 0.0 2.0 0.00 0.16 0.00 94 1012.2
20260510071555 59 78 0.0 2.0 0.00 0.16 0.00 94 1012.3
20260510064621 59 109 0.0 1.0 0.00 0.16 0.00 94 1014.0
20260510063100 59 0 0.0 2.0 0.00 0.16 0.00 93 1014.4
20260510061553 59 131 0.0 1.0 0.00 0.16 0.00 93 1015.0
20260510060053 59 48 1.0 3.0 0.00 0.16 0.00 93 1014.4
20260510054604 59 18 0.0 4.0 0.02 0.16 0.00 92 1014.2
20260510053055 60 235 0.0 5.0 0.06 0.16 0.00 92 1014.1
20260510051601 61 223 0.0 3.0 0.15 0.16 0.00 91 1013.9
20260510050055 61 234 0.0 6.0 0.16 0.16 0.00 90 1014.3
20260510044556 62 46 1.0 3.0 0.14 0.15 0.14 88 1013.7
20260510043057 64 0 1.0 11.0 0.09 0.10 0.09 82 1016.0
20260510041554 66 11 0.0 2.0 0.01 0.02 0.01 74 1014.7
20260510040057 70 44 0.0 1.0 0.00 0.01 0.00 66 1013.1
20260510034614 71 217 0.0 1.0 0.00 0.01 0.00 58 1012.5
20260510033057 71 188 0.0 5.0 0.00 0.01 0.00 59 1010.7
20260510031554 70 40 2.0 5.0 0.00 0.01 0.00 61 1009.8
20260510030054 71 45 0.0 2.0 0.00 0.01 0.00 61 1010.4
20260510024558 70 61 0.0 2.0 0.00 0.01 0.00 62 1010.2
20260510023053 69 0 0.0 0.0 0.00 0.01 0.00 63 1010.3
20260510021602 69 0 0.0 1.0 0.00 0.01 0.00 63 1009.6
20260510020056 71 0 0.0 0.0 0.00 0.01 0.00 60 1009.3
20260510014600 71 0 0.0 1.0 0.00 0.01 0.00 58 1008.2
20260510013135 72 0 0.0 0.0 0.00 0.01 0.00 59 1008.1
20260510011559 73 0 0.0 0.0 0.00 0.01 0.00 56 1008.2
20260510010054 74 0 0.0 0.0 0.00 0.01 0.00 54 1008.1
20260510004554 76 0 0.0 0.0 0.00 0.01 0.00 51 1008.1
20260510003104 77 0 0.0 1.0 0.00 0.01 0.00 49 1008.1
20260510001554 79 61 0.0 3.0 0.00 0.01 0.00 45 1008.2
20260510000116 81 61 1.0 5.0 0.00 0.01 0.00 43 1008.2
20260509234551 82 55 1.0 4.0 0.00 0.05 0.00 41 1008.3
20260509233052 83 78 1.0 5.0 0.00 0.05 0.00 39 1008.2
20260509231556 83 128 1.0 8.0 0.00 0.05 0.00 38 1008.3
20260509230058 83 223 1.0 4.0 0.00 0.05 0.00 36 1008.5
20260509224552 84 132 1.0 4.0 0.00 0.05 0.00 35 1008.7
20260509223105 84 15 2.0 0.0 0.00 0.05 0.00 36 1008.9
20260509221600 84 0 0.0 4.0 0.00 0.05 0.00 36 1009.0
20260509220052 84 44 1.0 5.0 0.00 0.05 0.00 40 1009.2
20260509214601 85 105 0.0 4.0 0.00 0.05 0.00 39 1009.0
20260509213055 85 84 0.0 5.0 0.00 0.05 0.00 37 1009.2
20260509211551 86 0 1.0 5.0 0.00 0.05 0.00 37 1009.3
20260509210056 85 0 0.0 7.0 0.00 0.05 0.00 38 1009.5
20260509204553 86 207 1.0 3.0 0.00 0.05 0.00 37 1009.6
20260509203055 86 0 1.0 4.0 0.00 0.05 0.00 35 1009.8
20260509201553 87 0.0 0.0 0.00 0.05 0.00 36 1009.9
20260509200111 87 0.0 0.0 0.00 0.05 0.00 34 1010.2
20260509194556 87 0.0 0.0 0.00 0.05 0.00 36 1010.4
20260509193055 86 0.0 0.0 0.00 0.05 0.00 32 1010.6
20260509191553 87 0.0 0.0 0.00 0.05 0.00 34 1010.8
20260509190054 87 0.0 0.0 0.00 0.05 0.00 34 1011.0
20260509184553 86 0.0 0.0 0.00 0.05 0.00 37 1011.2
20260509183108 85 0.0 0.0 0.00 0.05 0.00 41 1011.5
20260509181558 85 0.0 0.0 0.00 0.05 0.00 45 1011.5
20260509180055 85 0.0 0.0 0.00 0.05 0.00 44 1011.8
20260509174552 84 0.0 0.0 0.00 0.05 0.00 44 1011.9
20260509173057 83 0.0 0.0 0.00 0.05 0.00 49 1012.1
20260509171556 82 0.0 0.0 0.00 0.05 0.00 55 1012.1
20260509170053 81 187 2.0 0.0 0.00 0.05 0.00 54 1012.1
20260509164555 80 0 0.0 0.0 0.00 0.05 0.00 55 1012.5
20260509163056 78 0 0.0 0.0 0.00 0.05 0.00 58 1012.7
20260509161551 78 0.0 0.0 0.00 0.05 0.00 62 1012.8
20260509160055 76 0 0.0 0.0 0.00 0.05 0.00 65 1012.5
20260509154555 75 0 0.0 0.0 0.00 0.05 0.00 69 1012.5
20260509153055 75 0 0.0 0.0 0.00 0.05 0.00 66 1012.3
20260509151556 72 0 0.0 0.0 0.00 0.05 0.00 77 1012.5
20260509150052 68 0 0.0 0.0 0.00 0.05 0.00 87 1012.2
20260509144556 65 0 0.0 0.0 0.00 0.05 0.00 93 1012.3
20260509143101 63 0 0.0 0.0 0.00 0.05 0.00 95 1012.6
20260509141600 62 0 0.0 0.0 0.00 0.05 0.00 95 1012.5
20260509134551 58 0 0.0 0.0 0.00 0.05 0.00 95 1012.2
20260509133051 57 0 0.0 0.0 0.00 0.05 0.00 95 1012.2
20260509131552 54 0 0.0 0.0 0.00 0.05 0.00 95 1012.1
20260509130052 52 0 0.0 0.0 0.00 0.05 0.00 95 1011.7
20260509124554 51 0 0.0 0.0 0.00 0.05 0.00 94 1011.7
20260509123115 50 0 0.0 0.0 0.00 0.05 0.00 94 1011.6
20260509121558 49 0 0.0 0.0 0.00 0.05 0.00 94 1011.3
20260509120052 49 0 0.0 0.0 0.00 0.05 0.00 93 1011.1
20260509114549 49 0 0.0 0.0 0.00 0.05 0.00 93 1011.0
20260509113050 50 0 0.0 0.0 0.00 0.05 0.00 93 1010.7
20260509111552 50 0 0.0 0.0 0.00 0.05 0.00 94 1010.8
20260509110053 50 0 0.0 0.0 0.00 0.05 0.00 93 1010.7
20260509104552 50 0 0.0 0.0 0.00 0.05 0.00 93 1010.7
20260509103101 50 0 0.0 0.0 0.00 0.05 0.00 93 1010.9
20260509101553 51 0 0.0 0.0 0.00 0.05 0.00 93 1010.9
20260509100059 51 0 0.0 0.0 0.00 0.05 0.00 93 1011.2
20260509094554 52 0 0.0 0.0 0.00 0.05 0.00 93 1011.2
20260509093054 52 0 0.0 0.0 0.00 0.05 0.00 93 1011.3
20260509091553 52 0 0.0 0.0 0.00 0.05 0.00 93 1011.4